period_start,C,m1,H,J0,J1,J2,J3,J4,J5,JA,JB,JC,JD,JJ,JK,JN,#
2013-07-03 09:07:29,0.06,0.09,0.00,26.65,26.50,29.48,27.54,73.75,1007.84,2067.84,3461.55,3345.09,3641.24,999.94,906.43,1.04,0000 0000 0000 0000 000000
2013-07-03 09:08:29,0.05,0.09,0.00,26.68,26.52,29.55,27.49,73.71,1007.83,2067.54,3461.17,3344.48,3640.59,1000.29,906.70,1.06,0000 0000 0000 0000 000000
2013-07-03 09:09:29,-0.01,0.09,0.00,26.68,26.54,29.59,27.53,73.63,1007.83,2067.22,3460.60,3344.04,3640.07,999.73,905.90,1.08,0000 0000 0000 0000 000000
2013-07-03 09:10:29,0.02,0.09,0.00,26.70,26.57,29.60,27.53,73.79,1007.83,2067.08,3460.16,3343.44,3639.42,1000.25,906.51,1.09,0000 0000 0000 0000 000000
2013-07-03 09:11:29,0.05,0.09,0.00,26.71,26.58,29.64,27.61,73.79,1007.84,2067.03,3459.54,3343.07,3638.89,999.93,906.33,1.11,0000 0000 0000 0000 000000
2013-07-03 09:12:30,0.07,0.09,0.00,26.76,26.61,29.70,27.58,73.75,1007.83,2067.01,3459.17,3342.51,3638.34,999.86,905.99,1.13,0000 0000 0000 0000 000000
2013-07-03 09:13:30,0.06,0.10,0.00,26.76,26.63,29.67,27.64,73.75,1007.83,2067.00,3458.68,3342.16,3637.86,1000.19,906.27,1.14,0000 0000 0000 0000 000000
2013-07-03 09:14:30,0.07,0.10,0.00,26.79,26.65,29.70,27.57,73.83,1007.83,2067.00,3458.24,3341.70,3637.32,1000.23,906.29,1.16,0000 0000 0000 0000 000000
2013-07-03 09:15:30,0.07,0.10,0.00,26.79,26.67,29.69,27.62,73.75,1007.83,2067.00,3457.92,3341.27,3636.92,1000.05,906.08,1.18,0000 0000 0000 0000 000000
2013-07-03 09:16:30,0.06,0.10,0.00,26.81,26.69,29.72,27.56,73.83,1007.84,2066.99,3457.39,3340.89,3636.35,999.86,905.82,1.19,0000 0000 0000 0000 000000
2013-07-03 09:17:30,0.07,0.10,0.00,26.89,26.72,29.78,27.50,73.79,1007.83,2066.97,3457.05,3340.35,3635.86,999.63,905.41,1.21,0000 0000 0000 0000 000000
2013-07-03 09:18:31,0.06,0.10,0.00,26.93,26.73,29.79,27.68,73.88,1007.83,2066.92,3456.48,3339.93,3635.32,1000.21,905.72,1.23,0000 0000 0000 0000 000000
2013-07-03 09:19:31,0.06,0.10,0.00,26.92,26.76,29.81,27.51,73.79,1007.84,2066.56,3456.06,3339.38,3634.68,999.66,905.15,1.24,0000 0000 0000 0000 000000
2013-07-03 09:20:31,-0.01,0.10,0.00,26.89,26.78,29.85,27.59,73.75,1007.83,2066.22,3455.44,3338.77,3634.00,999.38,905.17,1.26,0000 0000 0000 0000 000000
2013-07-03 09:21:31,0.02,0.10,0.00,26.88,26.80,29.86,27.50,73.75,1007.84,2066.10,3455.13,3338.27,3633.37,999.75,905.53,1.28,0000 0000 0000 0000 000000
2013-07-03 09:22:32,0.03,0.10,0.00,26.92,26.83,29.89,27.56,73.79,1007.83,2066.05,3454.63,3337.83,3633.03,999.90,905.56,1.29,0000 0000 0000 0000 000000
2013-07-03 09:23:32,0.07,0.10,0.00,26.95,26.85,29.93,27.59,73.92,1007.83,2066.02,3454.24,3337.31,3632.47,999.76,905.37,1.31,0000 0000 0000 0000 000000
2013-07-03 09:24:32,0.05,0.11,0.00,26.96,26.88,29.95,27.62,73.96,1007.86,2066.00,3453.97,3337.06,3632.11,1000.34,905.84,1.33,0000 0000 0000 0000 000000
2013-07-03 09:25:32,0.03,0.11,0.00,26.96,26.90,29.95,27.67,73.79,1007.85,2066.00,3453.42,3336.58,3631.52,1000.38,905.88,1.34,0000 0000 0000 0000 000000
2013-07-03 09:26:32,0.08,0.11,0.00,26.96,26.92,30.00,27.58,73.83,1007.85,2065.99,3452.93,3336.06,3630.93,1000.18,905.69,1.36,0000 0000 0000 0000 000000
2013-07-03 09:27:33,0.09,0.11,0.00,26.88,26.94,29.99,27.63,73.83,1007.87,2065.96,3452.36,3335.45,3630.29,1000.21,905.84,1.38,0000 0000 0000 0000 000000
2013-07-03 09:28:33,0.07,0.11,0.00,26.77,26.97,30.03,27.58,73.96,1007.88,2065.82,3451.88,3334.90,3629.57,999.52,905.67,1.39,0000 0000 0000 0000 000000
2013-07-03 09:29:33,0.06,0.11,0.00,26.73,26.99,30.04,27.70,73.92,1007.86,2065.54,3451.32,3334.33,3628.97,1000.46,906.64,1.41,0000 0000 0000 0000 000000
2013-07-03 09:30:33,0.00,0.11,0.00,26.69,27.01,30.01,27.53,73.88,1007.86,2065.28,3450.82,3333.76,3628.34,999.60,906.03,1.43,0000 0000 0000 0000 000000
2013-07-03 09:31:33,0.03,0.11,0.00,26.65,27.03,30.02,27.63,73.92,1007.90,2065.14,3450.29,3333.22,3627.69,1000.04,906.65,1.45,0000 0000 0000 0000 000000
2013-07-03 09:32:34,0.04,0.11,0.00,26.60,27.06,30.02,27.61,73.96,1007.98,2065.05,3449.75,3332.61,3627.08,999.67,906.44,1.46,0000 0000 0000 0000 000000
2013-07-03 09:33:34,0.07,0.11,0.00,26.54,27.08,30.01,27.59,73.96,1007.90,2065.01,3449.23,3332.05,3626.37,999.85,906.70,1.48,0000 0000 0000 0000 000000
2013-07-03 09:34:34,0.08,0.12,0.00,26.49,27.11,30.02,27.75,73.96,1007.93,2065.00,3448.63,3331.40,3625.64,1000.47,907.45,1.50,0000 0000 0000 0000 000000
2013-07-03 09:35:35,0.10,0.12,0.00,26.46,27.13,30.00,27.56,73.96,1007.89,2065.00,3448.23,3331.00,3625.17,999.59,906.68,1.51,0000 0000 0000 0000 000000
2013-07-03 09:36:35,0.06,0.12,0.00,26.40,27.15,30.01,27.68,74.08,1007.92,2065.00,3447.80,3330.45,3624.59,1000.01,907.30,1.53,0000 0000 0000 0000 000000
2013-07-03 09:37:35,0.08,0.12,0.00,26.41,27.18,30.01,27.72,74.25,1007.99,2065.00,3447.30,3330.11,3624.17,999.53,906.89,1.55,0000 0000 0000 0000 000000
2013-07-03 09:38:35,0.06,0.12,0.00,26.44,27.20,30.03,27.69,74.04,1008.09,2064.95,3446.93,3329.55,3623.55,999.76,907.16,1.56,0000 0000 0000 0000 000000
2013-07-03 09:39:36,0.07,0.12,0.00,26.38,27.22,30.03,27.70,74.13,1008.07,2064.85,3446.40,3329.17,3623.10,1000.20,907.70,1.58,0000 0000 0000 0000 000000
2013-07-03 09:40:36,0.04,0.12,0.00,26.26,27.25,30.06,27.72,74.17,1008.14,2064.54,3446.00,3328.58,3622.47,1000.12,908.30,1.60,0000 0000 0000 0000 000000
2013-07-03 09:41:36,-0.00,0.12,0.00,26.12,27.27,30.09,27.75,74.17,1008.09,2064.20,3445.42,3328.08,3621.77,999.64,907.94,1.61,0000 0000 0000 0000 000000
2013-07-03 09:42:36,0.01,0.12,0.00,25.98,27.28,30.13,27.89,74.29,1008.15,2064.07,3445.08,3327.49,3621.18,999.72,908.48,1.63,0000 0000 0000 0000 000000
2013-07-03 09:43:36,0.04,0.12,0.00,25.98,27.30,30.15,27.65,74.13,1008.28,2064.02,3444.52,3327.07,3620.50,999.26,908.22,1.65,0000 0000 0000 0000 000000
2013-07-03 09:44:37,0.07,0.13,0.00,26.07,27.33,30.19,27.73,74.21,1008.31,2064.01,3444.09,3326.46,3619.88,1000.05,908.91,1.66,0000 0000 0000 0000 000000
2013-07-03 09:45:37,0.09,0.13,0.00,26.17,27.35,30.21,27.71,74.04,1008.30,2064.00,3443.51,3325.97,3619.26,999.53,907.92,1.68,0000 0000 0000 0000 000000
2013-07-03 09:46:37,0.08,0.13,0.00,26.24,27.37,30.22,27.73,74.13,1008.31,2064.00,3443.01,3325.33,3618.53,1000.16,908.27,1.70,0000 0000 0000 0000 000000
2013-07-03 09:47:37,0.10,0.13,0.00,26.25,27.40,30.23,27.80,74.17,1008.30,2063.99,3442.29,3324.52,3617.67,1000.20,908.26,1.71,0000 0000 0000 0000 000000
2013-07-03 09:48:37,0.13,0.13,0.00,26.26,27.42,30.27,27.76,74.25,1008.30,2063.95,3441.53,3323.64,3616.76,999.93,908.00,1.73,0000 0000 0000 0000 000000
2013-07-03 09:49:38,0.12,0.13,0.00,26.26,27.44,30.27,27.77,74.25,1008.25,2063.83,3440.86,3322.84,3615.91,1000.22,908.24,1.75,0000 0000 0000 0000 000000
2013-07-03 09:50:38,0.08,0.14,0.00,26.31,27.46,30.25,27.74,73.96,1008.23,2063.58,3440.28,3322.20,3615.11,1000.26,908.08,1.76,0000 0000 0000 0000 000000
2013-07-03 09:51:38,0.03,0.14,0.00,26.39,27.48,30.28,27.71,74.17,1008.30,2063.36,3439.64,3321.51,3614.34,999.89,907.47,1.78,0000 0000 0000 0000 000000
2013-07-03 09:52:38,0.05,0.14,0.00,26.44,27.50,30.31,27.86,74.29,1008.31,2063.17,3439.12,3320.88,3613.61,1000.69,908.14,1.80,0000 0000 0000 0000 000000
2013-07-03 09:53:38,0.05,0.14,0.00,26.45,27.53,30.31,27.82,74.13,1008.31,2063.08,3438.47,3320.18,3612.81,1000.03,907.51,1.81,0000 0000 0000 0000 000000
2013-07-03 09:54:39,0.09,0.14,0.00,26.47,27.55,30.33,27.63,74.13,1008.31,2063.03,3437.80,3319.41,3612.01,999.70,907.15,1.83,0000 0000 0000 0000 000000
2013-07-03 09:55:39,0.11,0.14,0.00,26.47,27.57,30.35,27.79,74.25,1008.30,2063.01,3436.84,3318.27,3610.78,1000.11,907.43,1.85,0000 0000 0000 0000 000000
2013-07-03 09:56:39,0.20,0.14,0.00,26.47,27.59,30.37,27.73,74.25,1008.30,2063.00,3435.17,3316.28,3608.56,1000.03,907.51,1.86,0000 0000 0000 0000 000000
2013-07-03 09:57:39,0.34,0.15,0.00,26.46,27.61,30.39,27.66,74.13,1008.30,2063.00,3433.30,3313.91,3606.05,999.36,907.08,1.88,0000 0000 0000 0000 000000
2013-07-03 09:58:39,0.36,0.16,0.00,26.45,27.63,30.41,27.78,74.13,1008.29,2063.00,3431.35,3311.57,3603.52,1000.06,907.58,1.90,0000 0000 0000 0000 000000
2013-07-03 09:59:40,0.37,0.16,0.00,26.45,27.65,30.43,27.71,74.13,1008.31,2062.99,3429.65,3309.44,3601.23,999.91,907.41,1.91,0000 0000 0000 0000 000000
2013-07-03 10:00:40,0.32,0.17,0.00,26.45,27.67,30.44,27.91,74.17,1008.31,2062.96,3427.90,3307.32,3599.01,1000.24,907.85,1.93,0000 0000 0000 0000 000000
2013-07-03 10:01:40,0.33,0.17,0.00,26.46,27.69,30.43,27.75,74.21,1008.31,2062.80,3426.17,3305.18,3596.68,999.81,907.26,1.95,0000 0000 0000 0000 000000
2013-07-03 10:02:40,0.27,0.18,0.00,26.47,27.71,30.44,27.86,74.25,1008.31,2062.45,3424.41,3303.10,3594.43,1000.18,907.66,1.96,0000 0000 0000 0000 000000
2013-07-03 10:03:40,0.23,0.18,0.00,26.47,27.72,30.45,27.88,74.33,1008.31,2062.23,3422.75,3301.15,3592.35,1000.42,907.75,1.98,0000 0000 0000 0000 000000
2013-07-03 10:04:41,0.26,0.19,0.00,26.48,27.75,30.47,27.68,74.33,1008.31,2062.11,3421.22,3299.30,3590.40,999.98,907.45,2.00,0000 0000 0000 0000 000000
2013-07-03 10:05:41,0.24,0.19,0.00,26.47,27.77,30.47,27.83,74.38,1008.31,2062.04,3419.86,3297.64,3588.57,1000.77,908.09,2.01,0000 0000 0000 0000 000000
2013-07-03 10:06:41,0.24,0.20,0.00,26.47,27.78,30.50,27.57,74.17,1008.31,2062.01,3418.46,3295.99,3586.82,999.43,907.26,2.03,0000 0000 0000 0000 000000
2013-07-03 10:07:41,0.26,0.20,0.00,26.47,27.80,30.53,27.80,74.25,1008.30,2062.00,3417.20,3294.55,3585.20,999.78,907.42,2.05,0000 0000 0000 0000 000000
2013-07-03 10:08:41,0.22,0.20,0.00,26.50,27.82,30.53,27.67,74.25,1008.30,2062.00,3416.05,3293.18,3583.82,999.93,907.28,2.06,0000 0000 0000 0000 000000
2013-07-03 10:09:42,0.20,0.21,0.00,26.50,27.84,30.53,27.64,74.25,1008.31,2062.00,3414.93,3291.88,3582.51,999.90,907.26,2.08,0000 0000 0000 0000 000000
2013-07-03 10:10:42,0.20,0.21,0.00,26.50,27.86,30.55,27.78,74.29,1008.31,2061.97,3413.81,3290.53,3581.10,1000.20,907.52,2.10,0000 0000 0000 0000 000000
2013-07-03 10:11:42,0.20,0.21,0.00,26.50,27.88,30.54,27.82,74.38,1008.31,2061.97,3412.69,3289.12,3579.62,1000.06,907.38,2.11,0000 0000 0000 0000 000000
2013-07-03 10:12:42,0.22,0.22,0.00,26.52,27.90,30.55,27.84,74.46,1008.31,2061.86,3411.45,3287.67,3578.05,1000.12,907.39,2.13,0000 0000 0000 0000 000000
2013-07-03 10:13:42,0.20,0.22,0.00,26.52,27.92,30.56,27.66,74.25,1008.31,2061.59,3410.26,3286.35,3576.64,999.71,907.00,2.15,0000 0000 0000 0000 000000
2013-07-03 10:14:43,0.13,0.22,0.00,26.54,27.94,30.58,27.80,74.33,1008.31,2061.33,3409.22,3285.11,3575.26,1000.14,907.34,2.16,0000 0000 0000 0000 000000
2013-07-03 10:15:43,0.13,0.23,0.00,26.57,27.96,30.56,27.75,74.29,1008.31,2061.17,3408.23,3283.93,3573.96,999.85,907.01,2.18,0000 0000 0000 0000 000000
2013-07-03 10:16:43,0.14,0.23,0.00,26.62,27.97,30.58,27.73,74.33,1008.31,2061.06,3407.24,3282.85,3572.76,1000.07,907.19,2.20,0000 0000 0000 0000 000000
2013-07-03 10:17:43,0.14,0.23,0.00,26.70,27.99,30.59,27.68,74.38,1008.31,2061.02,3406.32,3281.80,3571.61,999.74,906.49,2.21,0000 0000 0000 0000 000000
2013-07-03 10:18:43,0.15,0.23,0.00,26.83,28.01,30.63,27.70,74.29,1008.31,2061.00,3405.47,3280.78,3570.58,1000.01,906.37,2.23,0000 0000 0000 0000 000000
2013-07-03 10:19:43,0.15,0.24,0.00,27.00,28.03,30.62,27.71,74.33,1008.31,2061.00,3404.67,3279.94,3569.61,1000.38,906.26,2.25,0000 0000 0000 0000 000000
2013-07-03 10:20:44,0.14,0.24,0.00,27.24,28.05,30.62,27.63,74.17,1008.31,2061.00,3403.80,3278.98,3568.56,1000.10,905.24,2.26,0000 0000 0000 0000 000000
2013-07-03 10:21:44,0.16,0.24,0.00,27.51,28.06,30.63,27.52,73.92,1008.31,2061.00,3402.93,3278.14,3567.55,1000.03,904.34,2.28,0000 0000 0000 0000 000000
2013-07-03 10:22:44,0.14,0.24,0.00,27.79,28.08,30.64,27.54,73.96,1008.31,2060.95,3402.14,3277.21,3566.60,999.88,903.59,2.30,0000 0000 0000 0000 000000
2013-07-03 10:23:44,0.12,0.25,0.00,28.17,28.10,30.64,27.42,73.92,1008.31,2060.80,3401.37,3276.33,3565.62,1000.24,902.59,2.31,0000 0000 0000 0000 000000
2013-07-03 10:24:44,0.10,0.25,0.00,28.68,28.11,30.64,27.26,73.58,1008.31,2060.58,3400.59,3275.49,3564.66,999.45,900.35,2.33,0000 0000 0000 0000 000000
2013-07-03 10:25:45,0.08,0.25,0.00,29.23,28.13,30.65,27.16,73.38,1008.31,2060.33,3399.84,3274.67,3563.76,1000.13,899.33,2.35,0000 0000 0000 0000 000000
2013-07-03 10:26:45,0.07,0.25,0.00,29.78,28.15,30.65,27.11,73.29,1008.31,2060.16,3399.16,3273.81,3562.85,1000.04,897.61,2.36,0000 0000 0000 0000 000000
2013-07-03 10:27:45,0.08,0.25,0.00,30.23,28.17,30.66,27.03,73.25,1008.31,2060.08,3398.41,3272.91,3561.81,1000.61,896.72,2.38,0000 0000 0000 0000 000000
2013-07-03 10:28:45,0.13,0.25,0.00,30.54,28.18,30.67,26.98,73.04,1008.31,2060.03,3397.63,3272.05,3560.85,999.73,895.11,2.40,0000 0000 0000 0000 000000
2013-07-03 10:29:46,0.13,0.26,0.00,30.84,28.19,30.70,26.87,73.00,1008.31,2060.01,3396.83,3271.22,3559.85,999.60,894.01,2.41,0000 0000 0000 0000 000000
2013-07-03 10:30:46,0.13,0.26,0.00,31.07,28.22,30.73,26.89,72.96,1008.31,2060.00,3396.08,3270.37,3558.87,1000.04,893.76,2.43,0000 0000 0000 0000 000000
2013-07-03 10:31:46,0.13,0.26,0.00,31.25,28.23,30.75,26.77,72.96,1008.31,2060.00,3395.38,3269.54,3557.97,999.77,892.98,2.45,0000 0000 0000 0000 000000
2013-07-03 10:32:47,0.13,0.26,0.00,31.46,28.25,30.78,26.80,72.88,1008.31,2059.99,3394.67,3268.78,3557.18,999.90,892.50,2.46,0000 0000 0000 0000 000000
2013-07-03 10:33:47,0.12,0.26,0.00,31.62,28.26,30.79,26.83,72.88,1008.31,2059.98,3394.03,3268.04,3556.38,1000.10,892.18,2.48,0000 0000 0000 0000 000000
2013-07-03 10:34:47,0.10,0.27,0.00,31.76,28.28,30.81,26.88,72.88,1008.31,2059.95,3393.41,3267.29,3555.56,1000.52,892.16,2.50,0000 0000 0000 0000 000000
2013-07-03 10:35:47,0.11,0.27,0.00,31.87,28.30,30.84,26.67,72.67,1008.31,2059.82,3392.73,3266.53,3554.72,999.82,891.17,2.51,0000 0000 0000 0000 000000
2013-07-03 10:36:48,0.09,0.27,0.00,31.95,28.32,30.96,26.80,72.79,1008.31,2059.64,3392.20,3265.83,3553.99,1000.11,891.25,2.53,0000 0000 0000 0000 000000
2013-07-03 10:37:48,0.05,0.27,0.00,31.82,28.34,31.05,26.63,72.67,1008.31,2059.41,3391.54,3265.17,3553.22,999.45,890.98,2.55,0000 0000 0000 0000 000000
2013-07-03 10:38:48,0.03,0.27,0.00,30.67,28.35,30.97,26.83,72.96,1008.32,2059.17,3391.13,3264.49,3552.47,999.52,894.30,2.56,0000 0000 0000 0000 000000
2013-07-03 10:39:48,0.05,0.27,0.00,29.56,28.37,30.99,27.25,73.54,1008.33,2059.07,3390.51,3263.83,3551.75,999.93,898.00,2.58,0000 0000 0000 0000 000000
2013-07-03 10:40:49,0.09,0.27,0.00,28.86,28.39,31.02,27.28,73.67,1008.32,2059.03,3389.97,3263.29,3550.95,1000.53,900.66,2.60,0000 0000 0000 0000 000000
2013-07-03 10:41:49,0.08,0.27,0.00,28.72,28.41,31.22,27.39,73.71,1008.32,2059.01,3389.38,3262.70,3550.28,1000.22,900.88,2.62,0000 0000 0000 0000 000000
2013-07-03 10:42:49,0.09,0.28,0.00,28.91,28.42,31.22,27.31,73.83,1008.32,2059.00,3388.90,3262.14,3549.54,999.34,899.62,2.63,0000 0000 0000 0000 000000
2013-07-03 10:43:49,0.09,0.28,0.00,29.26,28.44,31.33,27.33,73.75,1008.32,2059.00,3388.31,3261.47,3548.76,1000.57,899.22,2.65,0000 0000 0000 0000 000000
2013-07-03 10:44:50,0.11,0.28,0.00,29.67,28.46,31.38,27.07,73.33,1008.34,2059.00,3387.65,3260.75,3548.13,999.39,897.35,2.67,0000 0000 0000 0000 000000
2013-07-03 10:45:50,0.11,0.28,0.00,29.70,28.47,31.51,27.22,73.67,1008.34,2059.00,3387.16,3260.19,3547.40,999.70,897.76,2.68,0000 0000 0000 0000 000000
2013-07-03 10:46:50,0.09,0.28,0.00,29.58,28.49,31.65,27.25,73.75,1008.34,2059.00,3386.51,3259.53,3546.65,1000.07,898.05,2.70,0000 0000 0000 0000 000000
2013-07-03 10:47:50,0.12,0.29,0.00,29.40,28.51,31.72,27.33,73.83,1008.35,2058.99,3385.97,3258.86,3545.93,1000.07,898.71,2.72,0000 0000 0000 0000 000000
2013-07-03 10:48:51,0.10,0.29,0.00,29.30,28.53,31.78,27.38,73.75,1008.36,2058.98,3385.38,3258.25,3545.25,999.76,898.62,2.73,0000 0000 0000 0000 000000
2013-07-03 10:49:51,0.09,0.29,0.00,29.17,28.55,31.81,27.32,73.75,1008.38,2058.96,3384.88,3257.56,3544.52,999.91,899.30,2.75,0000 0000 0000 0000 000000
2013-07-03 10:50:51,0.10,0.29,0.00,29.02,28.56,31.83,27.38,73.92,1008.43,2058.79,3384.32,3256.94,3543.74,1000.62,900.18,2.77,0000 0000 0000 0000 000000
2013-07-03 10:51:51,0.04,0.29,0.00,28.85,28.58,31.89,27.43,73.96,1008.46,2058.47,3383.72,3256.32,3543.04,1000.20,900.59,2.78,0000 0000 0000 0000 000000
2013-07-03 10:52:51,0.01,0.29,0.00,28.66,28.60,31.93,27.55,73.92,1008.39,2058.21,3383.21,3255.64,3542.36,1000.34,901.19,2.80,0000 0000 0000 0000 000000
2013-07-03 10:53:52,0.03,0.29,0.00,28.48,28.62,31.94,27.41,73.67,1008.37,2058.11,3382.60,3255.11,3541.66,999.76,901.19,2.82,0000 0000 0000 0000 000000
2013-07-03 10:54:52,0.06,0.29,0.00,28.35,28.63,31.96,27.41,73.92,1008.47,2058.08,3382.19,3254.47,3541.12,999.70,901.42,2.83,0000 0000 0000 0000 000000
2013-07-03 10:55:52,0.08,0.30,0.00,28.21,28.65,31.98,27.53,73.92,1008.55,2058.03,3381.64,3253.97,3540.47,1000.02,902.39,2.85,0000 0000 0000 0000 000000
2013-07-03 10:56:52,0.07,0.30,0.00,28.05,28.67,32.02,27.42,73.88,1008.59,2058.01,3381.22,3253.40,3539.87,999.64,902.55,2.87,0000 0000 0000 0000 000000
2013-07-03 10:57:53,0.08,0.30,0.00,27.94,28.69,32.04,27.62,74.08,1008.55,2058.00,3380.67,3252.96,3539.30,1000.11,903.31,2.88,0000 0000 0000 0000 000000
2013-07-03 10:58:53,0.07,0.30,0.00,27.80,28.70,32.09,27.66,74.13,1008.57,2058.00,3380.24,3252.38,3538.66,999.81,903.56,2.90,0000 0000 0000 0000 000000
2013-07-03 10:59:53,0.09,0.30,0.00,27.68,28.72,32.08,27.61,74.21,1008.56,2058.00,3379.77,3251.91,3538.13,1000.10,904.07,2.92,0000 0000 0000 0000 000000
2013-07-03 11:00:53,0.08,0.30,0.00,27.58,28.74,32.12,27.72,74.29,1008.59,2057.98,3379.28,3251.35,3537.50,999.97,904.29,2.93,0000 0000 0000 0000 000000
2013-07-03 11:01:54,0.10,0.30,0.00,27.52,28.75,32.13,27.77,74.21,1008.60,2057.95,3378.75,3250.83,3536.89,1000.12,904.61,2.95,0000 0000 0000 0000 000000
2013-07-03 11:02:54,0.07,0.30,0.00,27.51,28.77,32.14,27.58,74.13,1008.71,2057.96,3378.28,3250.31,3536.33,1000.16,904.76,2.97,0000 0000 0000 0000 000000
2013-07-03 11:03:54,0.08,0.31,0.00,27.48,28.79,32.16,27.49,74.25,1008.72,2057.93,3377.92,3249.88,3535.89,999.03,903.86,2.98,0000 0000 0000 0000 000000
2013-07-03 11:04:54,0.04,0.31,0.00,27.43,28.80,32.17,27.82,74.46,1008.75,2057.79,3377.38,3249.34,3535.32,1000.54,905.40,3.00,0000 0000 0000 0000 000000
2013-07-03 11:05:55,0.05,0.31,0.00,27.40,28.82,32.16,27.70,74.29,1008.70,2057.56,3376.98,3248.92,3534.66,999.63,904.63,3.02,0000 0000 0000 0000 000000
2013-07-03 11:06:55,0.02,0.31,0.00,27.40,28.84,32.15,27.72,74.38,1008.76,2057.35,3376.40,3248.34,3534.12,1000.28,905.11,3.03,0000 0000 0000 0000 000000
2013-07-03 11:07:55,0.02,0.31,0.00,27.37,28.86,32.15,27.77,74.38,1008.80,2057.18,3376.00,3247.79,3533.48,999.82,904.98,3.05,0000 0000 0000 0000 000000
2013-07-03 11:08:56,0.10,0.31,0.00,27.32,28.87,32.14,27.45,94.83,1008.79,2057.09,3373.40,3244.51,3529.88,990.68,896.38,3.07,0000 0000 0000 0000 000000
2013-07-03 11:09:56,0.53,0.32,0.00,27.29,28.89,32.08,27.82,74.29,1008.80,2057.10,3368.58,3238.41,3522.98,1001.92,907.21,3.08,0000 0000 0000 0000 000000
2013-07-03 11:10:56,0.96,0.33,0.00,27.28,28.91,32.04,27.90,74.46,1008.80,2057.09,3366.24,3235.29,3519.43,1000.52,905.89,3.10,0000 0000 0000 0000 000000
2013-07-03 11:11:56,0.47,0.34,0.00,27.22,28.93,32.01,27.75,74.33,1008.80,2057.04,3365.03,3233.86,3517.82,999.61,905.23,3.12,0000 0000 0000 0000 000000
2013-07-03 11:12:57,0.20,0.35,0.00,27.18,28.95,31.97,27.84,74.50,1008.80,2057.02,3364.35,3233.01,3516.77,1000.41,906.10,3.13,0000 0000 0000 0000 000000
2013-07-03 11:13:57,0.13,0.35,0.00,27.14,28.97,31.97,27.69,74.33,1008.80,2057.01,3363.64,3232.36,3516.13,1000.37,906.16,3.15,0000 0000 0000 0000 000000
2013-07-03 11:14:57,0.10,0.35,0.00,27.11,28.99,31.97,27.93,74.46,1008.80,2057.00,3363.20,3231.77,3515.45,1000.11,906.01,3.17,0000 0000 0000 0000 000000
2013-07-03 11:15:58,0.09,0.35,0.00,27.09,29.00,31.98,27.74,74.50,1008.80,2057.00,3362.63,3231.23,3514.85,999.93,905.97,3.18,0000 0000 0000 0000 000000
2013-07-03 11:16:58,0.09,0.35,0.00,27.06,29.02,32.04,27.89,74.63,1008.80,2057.00,3362.21,3230.63,3514.28,1000.33,906.45,3.20,0000 0000 0000 0000 000000
2013-07-03 11:17:58,0.09,0.36,0.00,27.05,29.03,32.10,27.83,74.67,1008.80,2057.00,3361.65,3230.10,3513.59,999.96,906.09,3.22,0000 0000 0000 0000 000000
2013-07-03 11:18:58,0.10,0.36,0.00,27.02,29.05,32.10,27.74,74.38,1008.80,2056.99,3361.13,3229.43,3512.81,999.52,905.78,3.23,0000 0000 0000 0000 000000
2013-07-03 11:19:59,0.10,0.36,0.00,27.02,29.07,32.08,27.72,74.38,1008.80,2056.90,3360.49,3228.73,3512.15,999.78,906.01,3.25,0000 0000 0000 0000 000000
2013-07-03 11:20:59,0.08,0.36,0.00,27.01,29.08,32.07,27.82,74.21,1008.80,2056.71,3359.98,3228.16,3511.45,1000.26,906.63,3.27,0000 0000 0000 0000 000000
2013-07-03 11:21:59,0.04,0.36,0.00,27.00,29.10,31.99,27.86,74.42,1008.80,2056.41,3359.39,3227.52,3510.69,1000.05,906.32,3.28,0000 0000 0000 0000 000000
2013-07-03 11:22:59,0.02,0.36,0.00,27.01,29.12,32.02,27.76,74.38,1008.80,2056.26,3358.87,3226.97,3510.13,999.96,906.10,3.30,0000 0000 0000 0000 000000
2013-07-03 11:24:00,0.05,0.36,0.00,27.00,29.13,32.00,27.87,74.50,1008.80,2056.12,3358.32,3226.36,3509.46,999.89,906.02,3.32,0000 0000 0000 0000 000000
2013-07-03 11:25:00,0.07,0.36,0.00,26.97,29.15,32.05,27.83,74.54,1008.80,2056.05,3357.87,3225.74,3508.83,999.72,906.17,3.33,0000 0000 0000 0000 000000
2013-07-03 11:26:00,0.07,0.37,0.00,26.99,29.17,32.04,27.87,74.46,1008.80,2056.03,3357.35,3225.16,3508.17,1000.24,906.52,3.35,0000 0000 0000 0000 000000
2013-07-03 11:27:01,0.09,0.37,0.00,27.03,29.17,32.06,27.80,74.29,1008.80,2056.01,3356.81,3224.52,3507.49,999.86,905.97,3.37,0000 0000 0000 0000 000000
2013-07-03 11:28:01,0.10,0.37,0.00,27.06,29.19,32.05,27.77,74.50,1008.80,2056.00,3356.21,3223.82,3506.74,999.96,906.04,3.39,0000 0000 0000 0000 000000
2013-07-03 11:29:02,0.10,0.37,0.00,27.06,29.21,32.07,27.80,74.54,1008.80,2056.00,3355.53,3223.22,3506.02,1000.13,906.20,3.40,0000 0000 0000 0000 000000
2013-07-03 11:30:02,0.11,0.37,0.00,27.05,29.22,32.08,27.84,74.38,1008.80,2056.00,3354.95,3222.38,3505.19,1000.17,906.26,3.42,0000 0000 0000 0000 000000
2013-07-03 11:31:02,0.13,0.37,0.00,27.10,29.24,32.04,27.70,74.29,1008.80,2056.00,3354.21,3221.52,3504.04,999.10,905.16,3.44,0000 0000 0000 0000 000000
2013-07-03 11:32:03,0.15,0.38,0.00,27.17,29.25,32.08,27.72,74.29,1008.80,2055.99,3353.50,3220.73,3503.23,999.91,905.59,3.45,0000 0000 0000 0000 000000
2013-07-03 11:33:03,0.11,0.38,0.00,27.23,29.27,32.10,27.71,74.33,1008.80,2055.97,3353.04,3220.13,3502.46,999.81,905.42,3.47,0000 0000 0000 0000 000000
2013-07-03 11:34:03,0.10,0.38,0.00,27.28,29.28,32.07,27.82,74.46,1008.80,2055.87,3352.43,3219.45,3501.69,1000.22,905.62,3.49,0000 0000 0000 0000 000000
2013-07-03 11:35:03,0.08,0.38,0.00,27.29,29.30,32.05,27.73,74.46,1008.80,2055.64,3351.76,3218.71,3500.87,999.76,905.16,3.50,0000 0000 0000 0000 000000
2013-07-03 11:36:04,0.04,0.38,0.00,27.30,29.30,31.99,27.74,74.54,1008.80,2055.42,3351.27,3218.17,3500.25,1000.21,905.56,3.52,0000 0000 0000 0000 000000
2013-07-03 11:37:04,0.03,0.38,0.00,27.31,29.32,32.00,27.72,74.54,1008.80,2055.22,3350.78,3217.50,3499.55,1000.14,905.53,3.54,0000 0000 0000 0000 000000
2013-07-03 11:38:04,0.05,0.39,0.00,27.30,29.32,32.00,27.89,74.54,1008.80,2055.10,3350.27,3216.97,3498.92,1000.42,905.73,3.55,0000 0000 0000 0000 000000
2013-07-03 11:39:04,0.06,0.39,0.00,27.30,29.34,32.00,27.84,74.42,1008.80,2055.06,3349.75,3216.38,3498.32,1000.93,906.21,3.57,0000 0000 0000 0000 000000
2013-07-03 11:40:05,0.09,0.39,0.00,27.30,29.35,32.04,27.75,74.50,1008.80,2055.03,3349.25,3215.78,3497.60,1000.29,905.54,3.59,0000 0000 0000 0000 000000
2013-07-03 11:41:05,0.09,0.39,0.00,27.32,29.36,32.03,27.69,74.46,1008.80,2055.01,3348.66,3215.24,3496.96,1000.10,905.40,3.60,0000 0000 0000 0000 000000
2013-07-03 11:42:05,0.09,0.39,0.00,27.35,29.37,32.05,27.74,74.58,1008.80,2055.00,3348.14,3214.63,3496.36,999.95,905.18,3.62,0000 0000 0000 0000 000000